ONEWEB-0019 (45449 NORAD) Tracking and Keplerian Element Data

This shows tracking and keplerian element data for the satellite.

Feedback or suggestion? Click here.




ElementValue
Catalog45449
NameONEWEB-0019
Epoch Orbit1585
Epoch Day187.58334491
Epoch Year2020
RAAN104.3651
Inclination87.5068
Eccentricity0.002568
Argument of Perigee277.7724
Mean Anonmoly178.513
Mean Motion14.90147286
Decay Rate0.0004034
L11 45449U 20020AB 20187.58334491 .00040340 00000-0 41230-2 0 9998
L22 45449 87.5068 104.3651 0025680 277.7724 178.5130 14.90147286 15855

Live tracking and technical data element details for ONEWEB-0019 (NORAD 45449). ONEWEB-0019 can be tracked NOW for your location showing map with azimuth and elevation plus other details from your city location.

Track the satellite on the map from your city or location and see movement details for azimuth, elevation, latitude, longitude, range, height, and movement on the map or in text.







IsCatalogInMostPopularTable: catalog: 45449, numindb: 23
Update: records affected: 1



GetName: 45449 ONEWEB-0019

Hit Count: updated at: Mon, 06 Jul 2020 05:39:40 GMT